Torna al catalogo

DELTA 1 DEB

AttivoLEO
NORAD 29183·DEBRIS·🇺🇸 United States

Lanciato Jan 11, 1968 da Vandenberg Space Force Base

Loading…

Prossimi Passaggi (prossime 24 ore)

TLE

ObsoletoSource: Space-Track

Epoca: Aug 28, 2026, 12:02 UTC

1 29183U 68002G   26240.50176020  .00001326  00000-0  23090-2 0  9992
2 29183 105.8002 106.8886 0220247 173.5113 305.8423 13.38476776101207

Traccia DELTA 1 DEB in tempo reale con AllMySat

Download on the App Store